Regional Weather Roundup
Issued by NWS

Home | Current Version | Previous Version | Text Only | Print | Product List | Glossary Off
Versions: 1 2 3 4 5 6 7 8 9 10 11 12 13 14 15 16 17 18 19 20 21 22 23 24 25 26 27 28 29 30 31 32 33 34 35 36 37 38 39 40 41 42 43 44 45 46 47 48 49 50

000
ASUS43 KBIS 251102
RWRND

NORTH DAKOTA REGIONAL WEATHER ROUNDUP
NATIONAL WEATHER SERVICE BISMARCK ND
600 AM CDT TUE APR 25 2017

NOTE: "FAIR" INDICATES FEW OR NO CLOUDS BELOW 12,000 FEET WITH NO
SIGNIFICANT WEATHER AND/OR OBSTRUCTIONS TO VISIBILITY.


NDZ001>003-009>011-017-251200-
NORTHWEST NORTH DAKOTA

CITY           SKY/WX    TMP DP  RH WIND       PRES   REMARKS
WILLISTON      CLOUDY    31  22  69 NE13      29.88R
MINOT          CLOUDY    30  24  78 N15       29.86R WCI  19
MINOT AFB      CLOUDY    29  22  76 NE17      29.86R WCI  17
$$

NDZ018>021-031>035-040>046-251200-
SOUTHWEST NORTH DAKOTA

CITY           SKY/WX    TMP DP  RH WIND       PRES   REMARKS
BISMARCK       CLOUDY    31  28  89 NE20      29.79S WCI  19
DICKINSON      CLOUDY    27  25  92 NE15      29.75F WCI  15
GARRISON         N/A     28  23  81 NE12      29.82R WCI  18
HETTINGER ARPT CLOUDY    28  26  92 NE16      29.75R WCI  16
$$

NDZ004>008-012>016-024-026-027-054-251200-
NORTHEAST NORTH DAKOTA

CITY           SKY/WX    TMP DP  RH WIND       PRES   REMARKS
GRAND FORKS    CLOUDY    32  29  88 N22       29.74R WCI  19
GRND FRKS AFB  CLOUDY    30  28  92 N23       29.75R WCI  17
DEVILS LAKE    CLOUDY    29  25  85 N22G31    29.80R WCI  15
$$

NDZ022-023-025-028>030-036>039-047>053-251200-
SOUTHEAST NORTH DAKOTA

CITY           SKY/WX    TMP DP  RH WIND       PRES   REMARKS
FARGO          CLOUDY    33  31  92 N24       29.67S
JAMESTOWN      CLOUDY    30  28  92 N18       29.73R WCI  18
$$




USA.gov is the U.S. government's official web portal to all federal, state and local government web resources and services.